Location: Tamazert
(32.6352°N, 5.2072°W)
Time: 04:08:04
(UTC+00:00)

Vanguard 2 Rocket - Pass Details

Date: 12 October 2022
Orbit: 555 x 3321 km, 32.9° (Epoch: 05 December)

Event Time Altitude Azimuth Distance (km) Brightness Sun altitude
Rises 01:46:03 0° 285° (WNW) 6,309 - -55.9°
Reaches altitude 10° 01:50:59 10° 282° (WNW) 4,866 - -55.1°
Maximum altitude 02:02:52 50° 212° (SSW) 1,808 - -53.2°
Drops below altitude 10° 02:09:38 10° 138° (SE) 2,829 - -52.0°
Sets 02:11:48 0° 132° (SE) 3,536 - -51.6°
